Theta_e
321 320 321 322 319 321 322 322 323 324 331 337 336 337 348 347 346 345 345 346 348 350 349 350 350 349 348 349 346 347 347 349 350 347 348 349 351 350 348 348 346 347 347 347
319 321 320 321 321 321 320 322 322 322 325 329 332 338 347 346 346 346 345 345 345 346 347 350 350 349 349 349 347 347 347 348 349 350 348 347 345 347 348 347 345 345 346 347
321 321 320 321 321 322 320 320 322 322 325 331 336 339 344 347 347 347 346 346 345 345 345 345 346 347 348 349 347 347 347 346 347 348 349 348 347 345 343 343 345 348 348 347
317 319 321 320 321 322 321 321 323 323 324 325 336 342 338 344 347 345 346 346 346 345 345 344 344 344 345 346 347 347 346 346 347 348 349 349 349 350 346 341 343 345 344 345
318 318 320 321 322 322 323 323 323 324 323 324 329 337 336 338 343 342 342 344 345 346 345 344 344 344 344 345 345 346 347 347 347 348 348 349 348 349 348 343 345 345 346 346
320 321 319 320 322 322 323 324 320 322 319 323 324 331 332 340 339 338 337 342 343 344 344 344 344 345 345 345 345 346 347 347 347 347 347 348 348 347 349 345 345 348 349 347
320 320 321 322 321 321 321 318 320 319 320 323 321 327 328 331 338 338 337 337 342 343 343 344 343 344 345 346 346 345 346 347 347 347 347 348 348 347 346 347 343 349 348 348
322 324 321 320 321 321 319 320 317 320 320 321 322 326 327 331 334 338 339 339 338 341 342 343 343 343 344 345 345 345 345 346 347 347 347 347 347 348 348 346 343 347 345 345
322 323 323 323 321 322 319 320 319 316 320 319 322 324 328 330 331 333 337 339 339 339 342 342 343 343 343 344 344 344 345 345 346 346 347 347 347 348 349 346 344 346 344 344
319 322 321 323 322 320 321 316 319 310 320 320 319 324 327 330 331 332 336 339 340 339 340 341 342 343 343 343 344 344 344 344 345 346 346 347 347 347 349 348 341 343 345 346
316 317 321 322 321 324 319 319 316 316 314 319 318 321 322 327 330 332 335 339 340 340 340 340 341 342 342 342 343 344 344 344 345 345 346 347 347 347 348 350 339 341 342 346
317 312 320 322 321 323 322 320 315 317 317 315 320 320 323 325 324 327 333 339 341 342 341 339 341 341 342 342 343 343 344 344 344 345 345 346 347 347 348 349 344 339 342 346
318 317 316 317 317 317 321 321 320 320 314 320 319 319 319 321 324 328 331 333 337 341 342 341 341 340 340 342 343 343 343 343 343 345 346 346 347 347 348 349 348 338 340 344
314 313 317 319 318 319 319 321 322 319 320 322 321 321 322 322 321 325 332 335 336 340 342 342 341 340 340 340 341 343 343 343 343 344 345 346 347 346 348 348 349 342 337 339
312 315 315 317 318 319 321 321 322 320 322 322 323 319 319 319 321 324 330 334 337 338 340 341 342 341 341 341 341 342 343 345 345 344 345 346 347 346 348 348 348 346 342 338
310 315 314 318 319 320 321 321 322 323 323 320 320 318 317 320 321 321 325 327 333 338 339 340 340 342 342 342 342 342 342 343 345 345 344 344 347 346 347 348 348 348 346 345
311 314 315 317 318 319 322 322 323 323 323 323 322 319 318 318 318 319 322 325 328 331 337 339 340 340 341 340 341 341 342 343 344 345 344 345 346 345 346 348 348 348 347 346
311 313 314 316 317 323 322 322 324 323 322 321 321 319 320 321 323 325 327 326 328 331 335 339 340 339 339 339 340 340 342 344 345 345 345 346 346 345 346 348 348 348 348 346
311 313 315 318 319 321 322 324 323 321 323 323 323 321 320 323 325 326 328 329 330 330 336 338 339 339 338 338 339 341 344 344 345 346 346 346 346 346 347 347 347 348 350 349
311 312 317 316 320 323 324 329 329 327 324 323 322 322 321 322 323 324 330 329 329 329 333 338 338 336 339 340 340 343 344 346 346 344 345 345 346 347 347 346 346 346 348 348
314 315 318 319 321 320 323 331 333 326 325 330 329 323 321 321 325 328 334 333 331 329 328 333 333 333 333 340 342 343 344 345 343 346 346 346 347 347 347 347 350 350 350 353
320 323 320 319 326 325 330 333 339 333 337 336 334 330 327 330 328 334 335 334 333 332 334 334 333 333 332 335 341 343 342 340 339 339 344 347 347 347 349 351 351 354 354 354
318 322 322 323 326 326 329 331 330 333 338 341 337 337 335 338 338 336 337 336 334 333 333 332 332 332 333 333 335 341 341 338 339 342 344 345 345 348 351 352 350 355 355 354
317 319 323 327 329 330 331 330 331 334 336 341 345 346 342 345 346 346 346 346 343 342 339 338 336 335 334 336 337 333 337 340 344 343 343 343 344 347 350 352 354 356 359 359
315 319 321 327 329 328 331 328 327 331 336 342 344 348 350 352 354 352 353 351 349 347 347 349 349 351 353 354 352 351 348 341 347 349 347 347 348 350 353 356 358 358 359 359
315 321 323 326 328 329 328 326 327 328 332 337 345 347 348 351 352 353 353 353 354 354 354 353 354 353 350 349 350 352 356 359 356 355 352 352 353 354 357 357 355 356 359 354
Wind_Speed
10 5 11 12 6 6 4 3 5 3 1 2 4 7 21 30 28 30 33 35 38 42 48 49 45 42 39 38 37 36 37 33 31 32 30 31 30 27 25 21 17 13 13 12
3 15 9 9 9 9 6 7 13 3 7 4 7 10 19 23 33 42 40 38 39 39 35 47 47 45 44 42 40 39 39 34 32 33 30 29 28 31 29 27 24 18 15 17
12 6 10 9 7 8 6 10 11 9 2 3 5 2 12 21 20 24 31 40 41 42 44 44 46 45 46 47 44 42 40 37 34 32 31 29 26 25 30 31 28 23 19 16
7 8 9 7 8 9 9 7 7 5 4 3 6 4 7 17 18 17 25 32 37 40 43 46 50 48 48 48 46 43 42 38 36 37 34 33 31 30 25 26 27 22 21 19
10 14 17 13 19 9 10 6 6 3 4 1 5 0 6 17 19 21 23 35 39 43 46 50 54 56 53 50 50 47 43 41 38 37 37 35 34 31 26 24 25 22 23 19
17 9 14 11 9 14 4 3 4 1 3 6 16 8 7 12 25 24 26 38 43 43 47 52 56 57 57 53 52 50 48 46 42 39 38 38 36 32 30 25 27 26 22 22
8 20 4 7 9 6 5 7 3 3 4 10 9 6 14 9 21 26 25 40 46 47 47 52 53 47 52 56 57 55 53 51 47 44 40 39 38 33 30 28 29 26 25 26
8 5 18 7 11 11 8 13 6 7 3 6 4 9 8 15 16 30 41 46 47 45 48 52 58 57 58 59 60 59 57 55 52 49 45 41 38 34 30 29 28 32 29 26
11 10 5 13 7 16 6 11 12 3 2 2 5 8 5 9 11 12 21 26 37 44 48 52 60 58 58 60 61 63 62 59 56 52 48 45 41 37 34 29 29 34 31 27
6 2 8 9 9 9 14 8 4 2 11 12 4 7 7 11 17 11 13 20 34 42 45 53 54 60 58 58 60 61 61 61 58 54 50 47 42 40 37 30 33 34 36 32
1 3 4 7 8 21 5 8 3 6 6 7 3 11 8 10 13 12 15 27 37 42 48 54 56 51 57 59 58 60 60 60 60 56 52 49 45 43 41 34 35 36 34 32
6 3 15 18 6 15 15 11 9 5 12 8 13 11 3 17 14 9 15 27 37 46 46 44 53 51 51 53 57 60 58 59 59 58 53 49 45 45 44 38 37 40 38 36
8 4 1 7 3 4 10 11 16 15 2 19 10 6 7 9 7 15 19 26 32 37 40 40 48 44 47 49 55 59 58 57 58 57 58 53 49 48 47 42 39 41 42 41
4 3 3 7 5 2 7 9 17 17 11 18 19 5 3 6 11 10 15 23 25 33 42 44 48 45 51 50 53 56 58 58 56 56 57 58 53 47 48 45 42 42 43 44
4 2 4 7 14 16 15 13 25 21 22 16 15 13 13 9 10 11 19 17 21 26 38 44 50 53 49 47 47 51 53 56 56 55 56 57 55 47 47 47 47 44 44 45
3 3 5 6 11 13 16 18 24 30 23 13 11 7 9 16 24 12 24 28 21 29 40 47 47 45 43 42 47 49 52 55 55 54 54 56 54 52 50 51 50 48 47 45
2 2 5 4 10 12 11 28 21 17 17 19 19 9 9 8 9 14 30 34 30 30 36 46 48 44 48 49 47 47 49 54 55 53 54 54 54 52 53 54 53 51 51 48
5 4 3 5 6 8 13 9 17 19 13 8 5 12 12 16 29 35 28 29 28 25 31 37 47 43 40 39 43 45 50 54 55 53 54 55 55 52 52 55 55 54 53 52
19 7 3 3 4 10 16 8 4 9 11 7 16 11 8 25 8 9 27 24 22 21 21 32 35 37 39 44 45 45 48 52 53 54 53 54 55 54 55 55 55 57 56 55
20 19 7 4 4 7 2 13 24 14 17 17 13 12 10 10 7 11 20 25 21 15 13 29 29 24 25 34 33 38 43 47 51 53 54 55 54 57 56 56 55 55 57 56
9 9 11 10 5 8 6 21 14 7 13 6 15 15 11 8 15 30 20 18 18 19 17 21 22 19 18 28 30 31 36 43 42 46 51 55 56 56 57 56 57 55 54 51
8 9 8 9 8 9 12 10 8 11 31 21 17 22 21 17 16 23 22 19 16 15 12 9 11 17 18 22 32 37 38 39 42 35 49 55 55 56 55 55 55 55 51 47
10 6 9 7 7 3 5 7 25 26 23 24 31 27 37 31 26 22 18 16 15 13 11 9 8 8 11 18 23 33 39 38 42 50 51 51 52 55 55 54 51 55 55 52
9 5 6 7 4 4 12 26 26 24 16 10 28 30 33 33 26 24 20 16 14 11 7 4 4 5 7 8 15 26 31 36 42 45 48 50 52 54 53 53 50 48 42 39
13 7 10 6 3 4 15 21 25 17 16 21 25 28 26 29 27 26 22 18 15 11 7 3 1 4 9 12 14 15 19 27 31 36 42 47 48 43 41 41 40 43 43 42
8 10 12 6 5 7 11 16 10 7 25 28 31 31 27 28 27 26 25 20 16 14 11 7 5 3 6 10 14 15 13 12 14 18 24 26 30 32 34 28 19 25 35 33
Wind_Direction
187 175 205 204 178 198 191 231 248 133 202 74 263 177 176 178 186 187 189 187 196 206 212 209 212 216 214 214 212 211 209 211 210 211 211 213 217 222 224 229 230 231 239 237
188 220 194 193 187 208 192 227 259 300 213 194 222 204 187 179 195 192 190 191 196 202 205 209 214 216 217 215 214 213 212 215 214 217 217 221 226 231 235 237 234 236 231 235
208 223 170 179 185 192 199 203 241 241 15 220 119 2 179 204 215 199 202 199 201 199 195 208 211 215 216 215 213 215 215 216 215 217 216 219 225 231 234 233 227 230 231 231
223 230 200 193 211 182 238 195 247 255 56 239 125 240 194 200 212 210 206 207 209 208 209 208 213 214 216 219 218 219 218 219 219 216 215 217 224 228 228 223 224 221 226 231
215 186 203 214 219 174 242 185 197 201 205 168 223 155 247 176 209 216 207 210 212 211 208 210 213 218 218 219 219 220 221 221 222 220 221 222 227 232 228 225 214 214 228 229
214 201 199 206 198 204 179 305 28 35 144 239 247 172 245 194 202 211 211 211 212 211 213 215 218 218 221 222 222 221 223 223 223 224 225 226 231 232 226 223 221 226 227 221
187 225 228 155 197 187 135 110 265 276 198 233 220 194 230 204 208 210 205 212 212 211 211 216 220 214 219 222 222 223 223 224 224 225 227 229 232 237 233 226 223 223 220 223
178 216 210 197 187 199 194 188 161 199 208 234 156 231 233 216 227 215 217 215 213 209 209 213 219 220 219 222 223 224 226 226 226 227 227 230 233 235 236 231 229 222 224 227
188 231 229 199 190 176 193 198 195 141 183 11 226 275 304 211 234 238 216 208 210 208 207 213 219 221 221 222 224 225 226 227 228 228 228 229 232 234 234 230 229 224 225 230
213 234 216 201 174 214 190 171 162 359 222 239 252 248 218 194 217 225 231 204 214 212 209 215 217 221 222 225 228 228 229 228 229 229 230 230 232 234 235 231 227 226 227 230
0 180 236 131 187 199 181 202 201 164 162 216 215 252 183 205 211 212 218 212 213 210 211 215 221 219 226 227 227 229 229 230 229 230 230 230 232 234 234 232 228 226 224 225
332 283 241 225 224 201 206 199 162 163 221 244 234 233 333 192 203 204 219 220 226 221 219 212 218 221 220 219 223 230 230 231 232 231 229 231 232 234 235 232 231 226 225 226
343 304 290 335 308 288 210 205 205 220 128 225 219 253 213 174 207 206 216 238 240 234 224 217 219 216 220 219 222 228 231 232 233 232 229 229 230 231 234 231 232 229 227 230
53 301 244 256 276 306 211 225 208 204 225 229 229 226 228 204 209 233 223 238 240 221 220 216 215 216 221 223 226 228 231 233 231 232 231 228 227 230 232 230 231 233 229 230
85 251 283 299 300 286 263 245 222 216 219 216 228 205 231 207 201 212 229 242 238 213 209 213 215 216 218 222 229 230 233 232 230 229 232 232 228 228 232 232 231 231 233 233
6 281 340 291 266 261 261 252 245 222 220 228 225 216 213 223 228 227 234 252 234 229 211 211 211 209 216 230 231 233 234 235 232 230 233 234 230 227 229 233 233 233 234 233
302 202 2 275 315 324 271 237 246 249 216 206 223 198 190 240 205 225 237 242 238 244 234 220 212 213 219 224 225 228 235 235 233 234 236 235 235 231 229 232 235 235 236 237
219 176 160 268 305 225 266 198 232 237 246 206 137 190 193 210 229 232 233 243 228 241 242 227 218 215 225 229 229 237 232 229 233 235 235 235 233 235 232 232 234 237 237 237
211 204 221 226 239 293 297 316 211 189 229 209 200 210 203 214 210 234 229 224 243 247 248 228 221 228 235 234 239 234 226 228 231 233 234 236 237 236 235 234 235 237 239 240
202 203 207 188 229 240 112 341 332 302 231 201 187 193 190 145 206 239 230 226 218 219 220 222 224 224 220 229 228 226 227 227 232 235 239 241 240 239 238 239 237 237 239 241
171 192 216 243 257 287 321 334 311 168 241 169 188 197 162 181 207 229 193 189 204 221 218 198 203 212 225 225 228 226 233 235 242 241 245 241 241 241 241 240 240 239 238 238
184 168 184 217 213 252 6 360 356 311 304 271 176 191 166 187 185 170 164 162 162 169 176 177 210 222 219 230 230 228 231 226 233 239 242 239 240 243 241 240 240 239 238 235
238 191 169 214 220 207 357 332 312 310 292 292 136 148 152 146 150 155 152 155 152 161 169 179 199 199 205 225 238 235 236 237 239 235 239 242 244 243 241 238 236 237 235 232
273 186 204 184 235 266 32 346 338 338 3 24 127 135 139 134 136 132 134 128 132 138 144 173 228 257 271 261 239 238 245 250 248 244 244 243 241 240 237 238 237 233 221 216
266 232 213 209 228 270 31 351 342 332 67 85 98 118 117 129 125 124 118 119 120 122 122 139 307 330 328 324 310 294 265 249 253 261 255 246 240 235 226 223 223 223 218 213
237 239 209 221 186 105 62 316 338 5 78 89 94 94 96 103 102 104 100 99 97 94 94 104 106 69 15 354 348 344 329 303 263 247 242 236 234 221 209 207 197 199 200 183